Auckland, New Zealand

7:27 PM NZST on June 22, 2018 (GMT +1200)
Auckland International

Weather History for NZAA - July, 2017

Change the Weather History Date:

Saturday, July 8, 2017

  Actual Average Record
Temperature  
Mean Temperature 52 °F -  
Max Temperature 60 °F 56 °F 62 °F (1998)
Min Temperature 44 °F 45 °F 35 °F (1996)
Degree Days  
Heating Degree Days 13    
Growing Degree Days 2 (Base 50)    
Moisture  
Dew Point 50 °F    
Average Humidity 90    
Maximum Humidity 100    
Minimum Humidity 68    
Precipitation  
Precipitation 0.00 in - - ()
Sea Level Pressure  
Sea Level Pressure 29.81 in    
Wind  
Wind Speed 4 mph ()    
Max Wind Speed 12 mph    
Max Gust Speed -    
Visibility 4.8 miles    
Events Fog , Rain    
Averages and records for this station are not official NWS values.
T = Trace of Precipitation, MM = Missing Value Source: Averaged Metar Reports

Daily Weather History Graph

Daily Weather History Graph

Search for Another Location

Airport or City:

Astronomy

Jul. 08, 2017 Rise Set
Actual Time 7:33 AM NZST 5:18 PM NZST
Civil Twilight 7:05 AM NZST 5:46 PM NZST
Nautical Twilight 6:32 AM NZST 6:19 PM NZST
Astronomical Twilight 6:01 AM NZST 6:50 PM NZST
Moon 4:36 PM NZST (7/8) 6:18 AM NZST (7/8)
Length of Visible Light 10h 41m
Length of Day
9h 44m
Waxing Gibbous, 99% of the Moon is Illuminated
Jul 8
Waxing Gibbous
Jul 9
Full
Jul 17
Last Quarter
Jul 23
New
Jul 31
First Quarter

Hourly Weather History & Observations

Time (NZST) Temp. Windchill Dew Point Humidity Pressure Visibility Wind Dir Wind Speed Gust Speed Precip Events Conditions
12:00 AM 51.8 °F - 50.0 °F 94% 29.77 in 6.2 mi South 2.3 mph - N/A   Mostly Cloudy
12:30 AM 51.8 °F - 50.0 °F 94% 29.80 in 6.2 mi SSW 2.3 mph - N/A   Mostly Cloudy
1:00 AM 50.0 °F - 48.2 °F 94% 29.80 in 6.2 mi South 2.3 mph - N/A   Overcast
1:30 AM 50.0 °F - 50.0 °F 100% 29.80 in 6.2 mi SE 1.2 mph - N/A   Scattered Clouds
2:30 AM 48.2 °F - 48.2 °F 100% 29.80 in 1.3 mi NE 2.3 mph - N/A   Mist
3:00 AM 48.2 °F - 48.2 °F 100% 29.80 in 0.3 mi NE 1.2 mph - N/A Fog Fog
3:30 AM 46.4 °F - 46.4 °F 100% 29.80 in 1.5 mi NE 1.2 mph - N/A Fog Patches of Fog
4:00 AM 46.4 °F 45.2 °F 46.4 °F 100% 29.80 in 0.7 mi North 3.5 mph - N/A Fog Patches of Fog
4:30 AM 46.4 °F 45.2 °F 46.4 °F 100% 29.80 in 1.9 mi NNE 3.5 mph - N/A   Mostly Cloudy
5:00 AM 44.6 °F 43.1 °F 44.6 °F 100% 29.80 in 0.3 mi East 3.5 mph - N/A Fog Fog
5:30 AM 44.6 °F 43.1 °F 44.6 °F 100% 29.80 in 0.1 mi NNE 3.5 mph - N/A Fog Fog
6:00 AM 46.4 °F 45.2 °F 46.4 °F 100% 29.83 in 0.3 mi NNE 3.5 mph - N/A Fog Fog
7:00 AM 46.4 °F 45.2 °F 46.4 °F 100% 29.83 in 0.1 mi NNE 3.5 mph - N/A Fog Fog
7:30 AM 46.4 °F 45.2 °F 46.4 °F 100% 29.83 in 0.6 mi NE 3.5 mph - N/A Fog Fog
8:00 AM 48.2 °F - 48.2 °F 100% 29.83 in 5.6 mi NNE 3.5 mph - N/A Rain Light Rain
9:00 AM 51.8 °F - 50.0 °F 94% 29.86 in 6.2 mi NNE 5.8 mph - N/A   Mostly Cloudy
9:30 AM 51.8 °F - 51.8 °F 100% 29.86 in 6.2 mi NNE 6.9 mph - N/A   Mostly Cloudy
10:00 AM 53.6 °F - 51.8 °F 94% 29.86 in 6.2 mi NE 4.6 mph - N/A Rain Light Rain
10:30 AM 53.6 °F - 51.8 °F 94% 29.89 in 5.0 mi North 6.9 mph - N/A Rain Rain
11:00 AM 53.6 °F - 51.8 °F 94% 29.86 in 6.2 mi North 5.8 mph - N/A   Mostly Cloudy
11:30 AM 57.2 °F - 53.6 °F 88% 29.86 in 6.2 mi North 4.6 mph - N/A   Scattered Clouds
12:00 PM 57.2 °F - 51.8 °F 82% 29.86 in 6.2 mi North 5.8 mph - N/A   Mostly Cloudy
12:30 PM 59.0 °F - 53.6 °F 82% 29.83 in 6.2 mi NNE 6.9 mph - N/A Rain Light Rain
1:00 PM 60.8 °F - 51.8 °F 72% 29.83 in 6.2 mi North 4.6 mph - N/A   Unknown
1:30 PM 59.0 °F - 51.8 °F 77% 29.83 in 6.2 mi WNW 6.9 mph - N/A   Scattered Clouds
2:00 PM 60.8 °F - 51.8 °F 72% 29.83 in 6.2 mi WNW 11.5 mph - N/A   Partly Cloudy
2:30 PM 60.8 °F - 50.0 °F 68% 29.80 in 6.2 mi West 10.4 mph - N/A   Unknown
3:00 PM 60.8 °F - 50.0 °F 68% 29.80 in 6.2 mi West 10.4 mph - N/A   Mostly Cloudy
4:00 PM 60.8 °F - 50.0 °F 68% 29.80 in 6.2 mi WNW 6.9 mph - N/A   Unknown
4:30 PM 60.8 °F - 50.0 °F 68% 29.80 in 6.2 mi NW 6.9 mph - N/A   Mostly Cloudy
5:00 PM 59.0 °F - 50.0 °F 72% 29.80 in 6.2 mi NW 8.1 mph - N/A   Mostly Cloudy
5:30 PM 57.2 °F - 50.0 °F 77% 29.80 in 6.2 mi NW 6.9 mph - N/A   Unknown
6:00 PM 55.4 °F - 50.0 °F 82% 29.80 in 6.2 mi NNW 5.8 mph - N/A   Unknown
6:30 PM 55.4 °F - 50.0 °F 82% 29.80 in 6.2 mi North 4.6 mph - N/A   Mostly Cloudy
7:30 PM 51.8 °F - 50.0 °F 94% 29.80 in 6.2 mi NNE 5.8 mph - N/A   Unknown
8:00 PM 53.6 °F - 50.0 °F 88% 29.77 in 6.2 mi NNE 5.8 mph - N/A   Unknown
8:30 PM 53.6 °F - 51.8 °F 94% 29.77 in 6.2 mi NE 6.9 mph - N/A   Partly Cloudy
9:00 PM 55.4 °F - 53.6 °F 94% 29.77 in 6.2 mi NE 8.1 mph - N/A   Partly Cloudy
10:00 PM 55.4 °F - 53.6 °F 94% 29.77 in 6.2 mi NNE 4.6 mph - N/A Rain Light Rain
10:30 PM 55.4 °F - 53.6 °F 94% 29.74 in 6.2 mi NNE 6.9 mph - N/A Rain Light Rain
11:00 PM 55.4 °F - 53.6 °F 94% 29.74 in 6.2 mi NNE 6.9 mph - N/A Rain Light Rain
11:30 PM 55.4 °F - 53.6 °F 94% 29.74 in 6.2 mi North 8.1 mph - N/A Rain Light Rain